Torna al catalogo

PEGASUS DEB

AttivoPO
NORAD 24239·DEBRIS·🇺🇸 United States

Lanciato May 19, 1994 da Vandenberg Space Force Base

Loading…

Prossimi Passaggi (prossime 24 ore)

TLE

AggiornatoSource: Space-Track

Epoca: Sep 14, 2026, 04:22 UTC

1 24239U 94029LN  26257.18258380  .00003293  00000-0  34906-3 0  9993
2 24239  81.5075  65.8258 0136029 282.6880  75.9154 14.82225256589445

Traccia PEGASUS DEB in tempo reale con AllMySat

Download on the App Store